Location: Aydie
(43.5695°N, 0.1043°W)
Time: 12:33:34
(UTC+00:00)

ARIANE 5 R/B - Pass Details

Date: 17 November 2025
Orbit: 746 x 792 km, 98.8° (Epoch: 06 December)

Event Time Altitude Azimuth Distance (km) Brightness Sun altitude
Rises 18:17:54 0° 189° (S) 3,177 5.9 -18.8°
Reaches altitude 10° 18:20:23 10° 199° (SSW) 2,257 5.3 -19.3°
Maximum altitude 18:24:50 33° 263° (W) 1,242 4.2 -20.1°
Drops below altitude 10° 18:29:20 10° 327° (NNW) 2,277 5.3 -20.9°
Sets 18:31:52 0° 337° (NNW) 3,210 5.9 -21.3°
